FNA505 BIRK-BGCO

Flight info

Callsign FNA505
Flight time N/A
Altitude 25000
Route MYRAR DCT RE
Aircraft BE20/M-SDFGRWY/LB1

Departure

Time N/A
Airport Reykjavík Domestic Airport (BIRK)

Arrival

Time 2026-05-09 14:47
Airport Neerlerit Inaat Airport (BGCO)
Time Latitude Longitude Altitude Speed Heading
2026-05-09 14:25 69.75372 -22.56349 25272 ft 181 kts 345°
2026-05-09 14:25 69.76634 -22.56400 25272 ft 181 kts 345°
2026-05-09 14:26 69.77894 -22.56451 25271 ft 181 kts 345°
2026-05-09 14:26 69.79154 -22.56502 25271 ft 181 kts 345°
2026-05-09 14:26 69.80413 -22.56554 25272 ft 181 kts 345°
2026-05-09 14:26 69.81673 -22.56605 25272 ft 181 kts 345°
2026-05-09 14:27 69.82935 -22.56656 25269 ft 181 kts 345°
2026-05-09 14:27 69.84195 -22.56708 25269 ft 181 kts 345°
2026-05-09 14:27 69.85454 -22.56760 25269 ft 181 kts 345°
2026-05-09 14:27 69.86716 -22.56812 25269 ft 181 kts 345°
2026-05-09 14:28 69.87959 -22.56863 25267 ft 181 kts 345°
2026-05-09 14:28 69.89236 -22.56915 25268 ft 181 kts 345°
2026-05-09 14:28 69.90493 -22.56967 25268 ft 181 kts 345°
2026-05-09 14:28 69.91752 -22.57019 25269 ft 181 kts 345°
2026-05-09 14:29 69.93010 -22.57071 25269 ft 181 kts 345°
2026-05-09 14:29 69.94269 -22.57123 25269 ft 181 kts 345°
2026-05-09 14:29 69.95525 -22.57174 25265 ft 180 kts 346°
2026-05-09 14:29 69.96759 -22.57223 25263 ft 180 kts 345°
2026-05-09 14:30 69.98006 -22.57273 25225 ft 180 kts 345°
2026-05-09 14:30 69.99292 -22.57348 24866 ft 189 kts 346°
2026-05-09 14:30 70.00630 -22.57433 24509 ft 195 kts 346°
2026-05-09 14:30 70.02006 -22.57505 24154 ft 200 kts 347°
2026-05-09 14:31 70.03409 -22.57567 23794 ft 204 kts 347°
2026-05-09 14:31 70.04832 -22.57615 23354 ft 205 kts 347°
2026-05-09 14:31 70.06271 -22.57663 22943 ft 208 kts 348°
2026-05-09 14:31 70.07720 -22.57724 22544 ft 209 kts 348°
2026-05-09 14:32 70.09189 -22.57792 22151 ft 213 kts 348°
2026-05-09 14:32 70.10674 -22.57850 21732 ft 214 kts 348°
2026-05-09 14:32 70.12165 -22.57904 21325 ft 215 kts 349°
2026-05-09 14:32 70.13663 -22.57959 20931 ft 215 kts 349°
2026-05-09 14:33 70.15164 -22.58017 20551 ft 216 kts 349°
2026-05-09 14:33 70.16671 -22.58077 20164 ft 217 kts 349°
2026-05-09 14:33 70.18183 -22.58138 19760 ft 216 kts 350°
2026-05-09 14:33 70.19680 -22.58195 19363 ft 215 kts 350°
2026-05-09 14:34 70.21172 -22.58254 18971 ft 214 kts 350°
2026-05-09 14:34 70.22661 -22.58315 18559 ft 214 kts 350°
2026-05-09 14:34 70.24157 -22.58381 18083 ft 215 kts 351°
2026-05-09 14:34 70.25655 -22.58448 17613 ft 216 kts 351°
2026-05-09 14:35 70.27161 -22.58513 17152 ft 216 kts 351°
2026-05-09 14:35 70.28650 -22.58577 16689 ft 217 kts 351°
2026-05-09 14:35 70.30170 -22.58645 16139 ft 218 kts 352°
2026-05-09 14:35 70.31681 -22.58703 15590 ft 216 kts 352°
2026-05-09 14:36 70.33181 -22.58758 15054 ft 215 kts 352°
2026-05-09 14:36 70.34676 -22.58816 14530 ft 215 kts 352°
2026-05-09 14:36 70.36170 -22.58879 13969 ft 214 kts 352°
2026-05-09 14:36 70.37663 -22.58948 13355 ft 216 kts 353°
2026-05-09 14:37 70.39178 -22.59021 12754 ft 219 kts 353°
2026-05-09 14:37 70.40703 -22.59092 12165 ft 220 kts 354°
2026-05-09 14:37 70.42236 -22.59162 11552 ft 221 kts 354°
2026-05-09 14:37 70.43772 -22.59228 10932 ft 220 kts 355°
2026-05-09 14:38 70.45283 -22.58473 10323 ft 226 kts 17°
2026-05-09 14:38 70.46574 -22.55734 9660 ft 233 kts 42°
2026-05-09 14:38 70.47660 -22.52134 8994 ft 232 kts 43°
2026-05-09 14:38 70.48747 -22.48579 8348 ft 232 kts 43°
2026-05-09 14:39 70.49832 -22.45044 7830 ft 227 kts 43°
2026-05-09 14:39 70.50876 -22.41655 7450 ft 219 kts 41°
2026-05-09 14:39 70.52152 -22.39348 7096 ft 209 kts 12°
2026-05-09 14:39 70.53568 -22.39201 6744 ft 203 kts 346°
2026-05-09 14:40 70.54861 -22.40643 6369 ft 201 kts 337°
2026-05-09 14:40 70.56164 -22.42257 5993 ft 203 kts 337°
2026-05-09 14:40 70.57464 -22.43872 5614 ft 201 kts 337°
2026-05-09 14:40 70.58751 -22.45472 5257 ft 199 kts 337°
2026-05-09 14:41 70.60028 -22.47064 4898 ft 199 kts 337°
2026-05-09 14:41 70.61292 -22.48645 4546 ft 192 kts 337°
2026-05-09 14:41 70.62498 -22.50156 4190 ft 185 kts 337°
2026-05-09 14:41 70.63670 -22.51625 3833 ft 180 kts 337°
2026-05-09 14:42 70.64658 -22.52864 3478 ft 132 kts 338°
2026-05-09 14:42 70.65438 -22.53833 3094 ft 113 kts 338°
2026-05-09 14:42 70.66141 -22.54712 2723 ft 107 kts 337°
2026-05-09 14:42 70.66815 -22.55557 2393 ft 101 kts 337°
2026-05-09 14:43 70.67431 -22.56311 2221 ft 98 kts 339°
2026-05-09 14:43 70.68108 -22.57096 2001 ft 110 kts 339°
2026-05-09 14:43 70.68847 -22.57891 1817 ft 114 kts 340°
2026-05-09 14:43 70.69612 -22.58592 1598 ft 116 kts 343°
2026-05-09 14:44 70.70389 -22.59229 1487 ft 114 kts 345°
2026-05-09 14:44 70.71145 -22.60030 1317 ft 118 kts 339°
2026-05-09 14:44 70.71935 -22.60911 1015 ft 123 kts 334°
2026-05-09 14:44 70.72719 -22.62072 725 ft 126 kts 333°
2026-05-09 14:45 70.73619 -22.63217 353 ft 169 kts 339°
2026-05-09 14:45 70.74727 -22.64557 643 ft 163 kts 346°
2026-05-09 14:45 70.75513 -22.62940 815 ft 180 kts 105°
2026-05-09 14:45 70.74572 -22.61046 1018 ft 150 kts 173°
2026-05-09 14:46 70.73630 -22.60786 682 ft 123 kts 191°
2026-05-09 14:46 70.73181 -22.62352 534 ft 98 kts 261°
2026-05-09 14:46 70.73449 -22.64229 240 ft 116 kts 334°
2026-05-09 14:46 70.74173 -22.64840 39 ft 92 kts 341°
2026-05-09 14:47 70.74414 -22.65164 42 ft 10 kts 245°
2026-05-09 14:47 70.74341 -22.65010 40 ft 21 kts 101°
2026-05-09 14:47 70.74355 -22.64694 31 ft 15 kts 153°
2026-05-09 14:47 70.74321 -22.64678 30 ft 0 kts 251°